Flag for U.S.A. Weather past 2 weeks in Miami, Florida, U.S.A.

Now
89 °F

Scattered clouds.


Feels Like: 99 °F
Forecast: 80 / 89 °F
Wind: 14 mph from Southeast

Location: Miami International Airport

Current Time: Aug 1, 2015 at 1:17:00 PM

Latest Report: Aug 1, 2015 at 11:53 AM


Visibility: 10 mi

Pressure: 30.01 "Hg

Humidity: 63%

Dew point: 75 °F

Location of MiamiLocation

Historic Weather in Miami — Graph

°F

Miami temperature yesterday

Maximum temperature yesterday: 91 °F (at 11:53 AM)
Minimum temperature yesterday: 74 °F (at 2:58 PM)
Average temperature yesterday: 81 °F

Past Weeks' High & Low Weather Summary

 TemperatureHumidityPressure
High95 °F (Jul 29, 2:53 PM)90% (Jul 25, 9:53 PM)30.09 "Hg (Jul 25, 9:53 PM)
Low74 °F (Jul 31, 2:58 PM)37% (Jul 29, 2:53 PM)29.89 "Hg (Jul 26, 4:53 AM)
Average84 °F71%30.01 "Hg
* Reported Jul 17 11:53 AM — Aug 1 11:53 AM, Miami, Weather by CustomWeather, © 2015

Note: Actual official high and low records may vary slightly from our data, if they occured in-between our weather recording intervals... More about our weather records

Advertising

Miami weather history for previous 24 hours

 ConditionsComfort  
Time TempWeatherWind HumidityBarometerVisibility
11:53 AM
Sat, Aug 1
89 °FScattered clouds.14 mph63%30.01 "Hg10 mi
10:53 AM88 °FMostly cloudy.13 mph67%30.01 "Hg10 mi
9:53 AM85 °FMostly cloudy.5 mph72%30.01 "Hg10 mi
8:53 AM82 °FMostly cloudy.No wind74%30.01 "Hg10 mi
7:53 AM79 °FMostly cloudy.No wind77%30.00 "Hg10 mi
6:53 AM78 °FMostly cloudy.No wind76%29.99 "Hg10 mi
5:53 AM77 °FPassing clouds.No wind79%30.00 "Hg10 mi
4:53 AM76 °FClear.No wind82%30.01 "Hg10 mi
3:53 AM76 °FPassing clouds.No wind82%30.01 "Hg10 mi
2:53 AM76 °FPassing clouds.No wind85%30.01 "Hg10 mi
1:53 AM77 °FClear.No wind79%30.03 "Hg10 mi
12:53 AM76 °FMostly cloudy.No wind82%30.05 "Hg10 mi
11:53 PM
Fri, Jul 31
77 °FMostly cloudy.5 mph77%30.05 "Hg10 mi
10:53 PM76 °FMostly cloudy.5 mph80%30.03 "Hg10 mi
9:53 PM75 °FLight rain. Overcast.5 mph85%30.03 "Hg10 mi
8:53 PM75 °FPartly sunny.7 mph85%30.03 "Hg10 mi
7:53 PM75 °FThunderstorms. Broken clouds.6 mph79%30.01 "Hg8 mi
6:53 PM76 °FThunderstorms. Broken clouds.9 mph69%30.02 "Hg8 mi
5:53 PM76 °FThunderstorms. Broken clouds.15 mph74%30.01 "Hg7 mi
4:53 PM77 °FThunderstorms. Broken clouds.15 mph71%30.00 "Hg8 mi
3:53 PM78 °FThunderstorms. Broken clouds.5 mph76%30.00 "Hg7 mi
3:04 PM74 °FStrong thunderstorms. Mostly cloudy.21 mph79%30.02 "Hg1 mi
2:58 PM74 °FStrong thunderstorms. Dense fog.21 mph82%30.03 "Hg1 mi
2:03 PM80 °FStrong thunderstorms. Mostly cloudy.8 mph69%30.03 "Hg2 mi
1:53 PM89 °FThunderstorms. Mostly cloudy.20 mph61%30.01 "Hg10 mi
Weather by CustomWeather, © 2015

See weather overviewHow to use our weather pages